,,Stat6,,Stat2,,Stat8,,Stat9,,Stat10,,Wind1,,Wind1,
time,status,PA1M_AVG,status,PR1M_SUM,status,RH1M_AVG,status,SR1M_AVG,status,TA1M_AVG,status,W1dAve1m,status,W1sAve1m,
2008-06-25, 00:00:00,VALID,918.148,VALID,0,VALID,100,VALID,0.0169808,VALID,19.6277,VALID,72,VALID,0,
2008-06-25, 00:01:00,VALID,918.134,VALID,0,VALID,100,VALID,0.0169808,VALID,19.6302,VALID,72,VALID,0,
2008-06-25, 00:02:00,VALID,918.134,VALID,0,VALID,100,VALID,0.0169808,VALID,19.6534,VALID,72,VALID,0,
2008-06-25, 00:03:00,VALID,918.143,VALID,0,VALID,100,VALID,0,VALID,19.6828,VALID,72,VALID,0,
2008-06-25, 00:04:00,VALID,918.129,VALID,0,VALID,100,VALID,0,VALID,19.6928,VALID,72,VALID,0,
2008-06-25, 00:05:00,VALID,918.127,VALID,0,VALID,100,VALID,0,VALID,19.6988,VALID,72,VALID,0,
2008-06-25, 00:06:00,VALID,918.144,VALID,0,VALID,100,VALID,0,VALID,19.7058,VALID,72,VALID,0,
2008-06-25, 00:07:00,VALID,918.129,VALID,0,VALID,100,VALID,0.0339617,VALID,19.7055,VALID,72,VALID,0,
2008-06-25, 00:08:00,VALID,918.117,VALID,0,VALID,100,VALID,0.0169808,VALID,19.7153,VALID,72,VALID,0,
2008-06-25, 00:09:00,VALID,918.117,VALID,0,VALID,100,VALID,0.0169808,VALID,19.7215,VALID,72,VALID,0,
2008-06-25, 00:10:00,VALID,918.112,VALID,0,VALID,100,VALID,0,VALID,19.7058,VALID,72,VALID,0,
2008-06-25, 00:11:00,VALID,918.1,VALID,0,VALID,100,VALID,0.0169808,VALID,19.6923,VALID,72,VALID,0,
2008-06-25, 00:12:00,VALID,918.089,VALID,0,VALID,100,VALID,-0.0169808,VALID,19.6888,VALID,72,VALID,0,
2008-06-25, 00:13:00,VALID,918.071,VALID,0,VALID,100,VALID,0.0169808,VALID,19.6758,VALID,72,VALID,0,
2008-06-25, 00:14:00,VALID,918.067,VALID,0,VALID,100,VALID,0.0339617,VALID,19.6731,VALID,72,VALID,0,
2008-06-25, 00:15:00,VALID,918.064,VALID,0,VALID,100,VALID,0.0169808,VALID,19.6631,VALID,72,VALID,0,
2008-06-25, 00:16:00,VALID,918.065,VALID,0,VALID,100,VALID,0.0169808,VALID,19.6432,VALID,72,VALID,0,
2008-06-25, 00:17:00,VALID,918.047,VALID,0,VALID,100,VALID,0.0169808,VALID,19.6539,VALID,72,VALID,0,
2008-06-25, 00:18:00,VALID,918.04,VALID,0,VALID,100,VALID,0.0509425,VALID,19.6601,VALID,72,VALID,0,
2008-06-25, 00:19:00,VALID,918.023,VALID,0,VALID,100,VALID,0.0169808,VALID,19.6534,VALID,72,VALID,0,
2008-06-25, 00:20:00,VALID,918.011,VALID,0,VALID,100,VALID,0.0169808,VALID,19.6302,VALID,72,VALID,0,
2008-06-25, 00:21:00,VALID,918,VALID,0,VALID,100,VALID,0.0339617,VALID,19.6369,VALID,72,VALID,0,
2008-06-25, 00:22:00,VALID,917.989,VALID,0,VALID,100,VALID,0.0169808,VALID,19.6432,VALID,73,VALID,0,
2008-06-25, 00:23:00,VALID,917.978,VALID,0,VALID,100,VALID,0.0679233,VALID,19.6334,VALID,86,VALID,0,
2008-06-25, 00:24:00,VALID,917.975,VALID,0,VALID,100,VALID,-0.0169808,VALID,19.6342,VALID,86,VALID,0.321162,
2008-06-25, 00:25:00,VALID,917.967,VALID,0,VALID,100,VALID,0,VALID,19.6441,VALID,86,VALID,0.239025,
2008-06-25, 00:26:00,VALID,917.97,VALID,0,VALID,100,VALID,-0.0169808,VALID,19.6444,VALID,85,VALID,0,
2008-06-25, 00:27:00,VALID,917.95,VALID,0,VALID,100,VALID,-0.0339617,VALID,19.6481,VALID,82,VALID,0,
2008-06-25, 00:28:00,VALID,917.936,VALID,0,VALID,100,VALID,-0.0169808,VALID,19.6414,VALID,82,VALID,0,
2008-06-25, 00:29:00,VALID,917.918,VALID,0,VALID,100,VALID,-0.0509425,VALID,19.6349,VALID,86,VALID,0.188244,
2008-06-25, 00:30:00,VALID,917.914,VALID,0,VALID,100,VALID,-0.0509425,VALID,19.6377,VALID,108,VALID,0.679506,
2008-06-25, 00:31:00,VALID,917.91,VALID,0,VALID,100,VALID,-0.0509425,VALID,19.6549,VALID,135,VALID,0.728795,
2008-06-25, 00:32:00,VALID,917.897,VALID,0,VALID,100,VALID,-0.0339617,VALID,19.6606,VALID,135,VALID,0.661966,
2008-06-25, 00:33:00,VALID,917.874,VALID,0,VALID,100,VALID,-0.0339617,VALID,19.6738,VALID,135,VALID,0.457541,
2008-06-25, 00:34:00,VALID,917.853,VALID,0,VALID,100,VALID,-0.0509425,VALID,19.6733,VALID,135,VALID,0.0357143,
2008-06-25, 00:35:00,VALID,917.852,VALID,0,VALID,100,VALID,-0.0679233,VALID,19.7038,VALID,135,VALID,0.765816,
2008-06-25, 00:36:00,VALID,917.835,VALID,0,VALID,100,VALID,-0.0849042,VALID,19.7003,VALID,135,VALID,0.446733,
2008-06-25, 00:37:00,VALID,917.824,VALID,0,VALID,100,VALID,-0.0509425,VALID,19.6931,VALID,135,VALID,0,
2008-06-25, 00:38:00,VALID,917.798,VALID,0,VALID,100,VALID,0.0169808,VALID,19.7055,VALID,134,VALID,0,
2008-06-25, 00:39:00,VALID,917.779,VALID,0,VALID,100,VALID,0.0679233,VALID,19.7115,VALID,134,VALID,0,
2008-06-25, 00:40:00,VALID,917.758,VALID,0,VALID,100,VALID,0.0169808,VALID,19.7185,VALID,135,VALID,0,
2008-06-25, 00:41:00,VALID,917.731,VALID,0,VALID,100,VALID,0.0679233,VALID,19.7118,VALID,135,VALID,0,
2008-06-25, 00:42:00,VALID,917.716,VALID,0,VALID,100,VALID,0,VALID,19.715,VALID,145,VALID,0,
2008-06-25, 00:43:00,VALID,917.697,VALID,0,VALID,100,VALID,0.0509425,VALID,19.718,VALID,147,VALID,0,
2008-06-25, 00:44:00,VALID,917.683,VALID,0,VALID,100,VALID,0.0509425,VALID,19.7213,VALID,158,VALID,0,
2008-06-25, 00:45:00,VALID,917.675,VALID,0,VALID,100,VALID,0.0509425,VALID,19.7248,VALID,158,VALID,0,
2008-06-25, 00:46:00,VALID,917.668,VALID,0,VALID,100,VALID,0.0849042,VALID,19.7113,VALID,158,VALID,0,
2008-06-25, 00:47:00,VALID,917.668,VALID,0,VALID,100,VALID,0.0679233,VALID,19.7045,VALID,158,VALID,0,
2008-06-25, 00:48:00,VALID,917.662,VALID,0,VALID,100,VALID,0.0509425,VALID,19.6983,VALID,157,VALID,0,
2008-06-25, 00:49:00,VALID,917.652,VALID,0,VALID,100,VALID,0.0679233,VALID,19.6918,VALID,158,VALID,0,
2008-06-25, 00:50:00,VALID,917.642,VALID,0,VALID,100,VALID,0.0849042,VALID,19.6916,VALID,161,VALID,0,
2008-06-25, 00:51:00,VALID,917.643,VALID,0,VALID,100,VALID,0.0849042,VALID,19.6749,VALID,157,VALID,0,
2008-06-25, 00:52:00,VALID,917.631,VALID,0,VALID,100,VALID,0.0849042,VALID,19.6714,VALID,164,VALID,0,
2008-06-25, 00:53:00,VALID,917.636,VALID,0,VALID,100,VALID,0.0339617,VALID,19.6626,VALID,156,VALID,0,
2008-06-25, 00:54:00,VALID,917.649,VALID,0,VALID,100,VALID,-0.0169808,VALID,19.6634,VALID,151,VALID,0,
2008-06-25, 00:55:00,VALID,917.66,VALID,0,VALID,100,VALID,-0.0509425,VALID,19.6679,VALID,152,VALID,0,
2008-06-25, 00:56:00,VALID,917.665,VALID,0,VALID,100,VALID,-0.0339617,VALID,19.6641,VALID,152,VALID,0,
2008-06-25, 00:57:00,VALID,917.681,VALID,0,VALID,100,VALID,-0.0509425,VALID,19.6571,VALID,152,VALID,0,
2008-06-25, 00:58:00,VALID,917.672,VALID,0,VALID,100,VALID,-0.0339617,VALID,19.6509,VALID,152,VALID,0,
2008-06-25, 00:59:00,VALID,917.683,VALID,0,VALID,100,VALID,-0.0339617,VALID,19.6644,VALID,152,VALID,0,
2008-06-25, 01:00:00,VALID,917.675,VALID,0,VALID,100,VALID,-0.0509425,VALID,19.6481,VALID,145,VALID,0,
2008-06-25, 01:01:00,VALID,917.672,VALID,0,VALID,100,VALID,-0.0679233,VALID,19.6314,VALID,123,VALID,0,
2008-06-25, 01:02:00,VALID,917.667,VALID,0,VALID,100,VALID,-0.0849042,VALID,19.6382,VALID,116,VALID,0.495821,
2008-06-25, 01:03:00,VALID,917.661,VALID,0,VALID,100,VALID,-0.0679233,VALID,19.6516,VALID,115,VALID,0.675305,
2008-06-25, 01:04:00,VALID,917.641,VALID,0,VALID,100,VALID,0,VALID,19.6549,VALID,115,VALID,0.703835,
2008-06-25, 01:05:00,VALID,917.635,VALID,0,VALID,100,VALID,-0.0339617,VALID,19.6449,VALID,115,VALID,0.779297,
2008-06-25, 01:06:00,VALID,917.627,VALID,0,VALID,100,VALID,-0.0679233,VALID,19.6419,VALID,120,VALID,0.876302,
2008-06-25, 01:07:00,VALID,917.603,VALID,0,VALID,100,VALID,-0.0509425,VALID,19.6414,VALID,126,VALID,0.763281,
2008-06-25, 01:08:00,VALID,917.6,VALID,0,VALID,100,VALID,-0.0169808,VALID,19.6414,VALID,121,VALID,0.692406,
2008-06-25, 01:09:00,VALID,917.577,VALID,0,VALID,100,VALID,-0.0509425,VALID,19.6347,VALID,124,VALID,0.674293,
2008-06-25, 01:10:00,VALID,917.565,VALID,0,VALID,100,VALID,-0.0509425,VALID,19.6479,VALID,135,VALID,0.745094,
2008-06-25, 01:11:00,VALID,917.558,VALID,0,VALID,100,VALID,-0.0169808,VALID,19.6412,VALID,135,VALID,0.615699,
2008-06-25, 01:12:00,VALID,917.542,VALID,0,VALID,100,VALID,-0.0169808,VALID,19.6539,VALID,135,VALID,0.200521,
2008-06-25, 01:13:00,VALID,917.527,VALID,0,VALID,100,VALID,-0.0339617,VALID,19.6641,VALID,136,VALID,0.732701,
2008-06-25, 01:14:00,VALID,917.522,VALID,0,VALID,100,VALID,-0.0679233,VALID,19.6636,VALID,127,VALID,0.699609,
2008-06-25, 01:15:00,VALID,917.516,VALID,0,VALID,100,VALID,-0.0339617,VALID,19.6708,VALID,130,VALID,0.680051,
2008-06-25, 01:16:00,VALID,917.514,VALID,0,VALID,100,VALID,-0.0509425,VALID,19.6706,VALID,136,VALID,0.480129,
2008-06-25, 01:17:00,VALID,917.498,VALID,0,VALID,100,VALID,0,VALID,19.6636,VALID,152,VALID,0.799183,
2008-06-25, 01:18:00,VALID,917.493,VALID,0,VALID,100,VALID,-0.0509425,VALID,19.6808,VALID,163,VALID,0.358553,
2008-06-25, 01:19:00,VALID,917.492,VALID,0,VALID,100,VALID,-0.0509425,VALID,19.6771,VALID,161,VALID,0.622456,
2008-06-25, 01:20:00,VALID,917.477,VALID,0,VALID,100,VALID,-0.101885,VALID,19.6973,VALID,157,VALID,0.328869,
2008-06-25, 01:21:00,VALID,917.482,VALID,0,VALID,100,VALID,-0.0849042,VALID,19.6941,VALID,157,VALID,0,
2008-06-25, 01:22:00,VALID,917.472,VALID,0,VALID,100,VALID,-0.0849042,VALID,19.6833,VALID,137,VALID,0.440168,
2008-06-25, 01:23:00,VALID,917.451,VALID,0,VALID,100,VALID,-0.0509425,VALID,19.6836,VALID,130,VALID,0.323946,
2008-06-25, 01:24:00,VALID,917.452,VALID,0,VALID,100,VALID,-0.0679233,VALID,19.6938,VALID,133,VALID,0.0882241,
2008-06-25, 01:25:00,VALID,917.435,VALID,0,VALID,100,VALID,-0.0679233,VALID,19.6936,VALID,144,VALID,0.0390625,
2008-06-25, 01:26:00,VALID,917.419,VALID,0,VALID,100,VALID,-0.0169808,VALID,19.6898,VALID,155,VALID,0.421503,
2008-06-25, 01:27:00,VALID,917.415,VALID,0,VALID,100,VALID,-0.0679233,VALID,19.6901,VALID,156,VALID,0.511379,
2008-06-25, 01:28:00,VALID,917.402,VALID,0,VALID,100,VALID,0,VALID,19.6866,VALID,151,VALID,0.367006,
2008-06-25, 01:29:00,VALID,917.388,VALID,0,VALID,100,VALID,-0.0339617,VALID,19.6833,VALID,146,VALID,0,
2008-06-25, 01:30:00,VALID,917.383,VALID,0,VALID,100,VALID,0,VALID,19.6836,VALID,155,VALID,0.281068,
2008-06-25, 01:31:00,VALID,917.377,VALID,0,VALID,100,VALID,-0.0339617,VALID,19.6704,VALID,159,VALID,0.773607,
2008-06-25, 01:32:00,VALID,917.375,VALID,0,VALID,100,VALID,-0.0169808,VALID,19.6771,VALID,154,VALID,0.614955,
2008-06-25, 01:33:00,VALID,917.369,VALID,0,VALID,100,VALID,-0.0339617,VALID,19.6639,VALID,160,VALID,0.704153,
2008-06-25, 01:34:00,VALID,917.367,VALID,0,VALID,100,VALID,-0.0679233,VALID,19.6609,VALID,159,VALID,0.442116,
2008-06-25, 01:35:00,VALID,917.379,VALID,0,VALID,100,VALID,-0.0339617,VALID,19.6674,VALID,160,VALID,0.0514482,
2008-06-25, 01:36:00,VALID,917.381,VALID,0,VALID,100,VALID,-0.0169808,VALID,19.6741,VALID,156,VALID,0.00798611,
2008-06-25, 01:37:00,VALID,917.378,VALID,0,VALID,100,VALID,-0.0169808,VALID,19.6711,VALID,141,VALID,0.116806,
2008-06-25, 01:38:00,VALID,917.386,VALID,0,VALID,100,VALID,0,VALID,19.6471,VALID,105,VALID,0.0753348,
2008-06-25, 01:39:00,VALID,917.38,VALID,0,VALID,100,VALID,0.0679233,VALID,19.6526,VALID,101,VALID,0,
2008-06-25, 01:40:00,VALID,917.377,VALID,0,VALID,100,VALID,0.0849042,VALID,19.6564,VALID,101,VALID,0,
2008-06-25, 01:41:00,VALID,917.379,VALID,0,VALID,100,VALID,0.0169808,VALID,19.6437,VALID,90,VALID,0,
2008-06-25, 01:42:00,VALID,917.374,VALID,0,VALID,100,VALID,0.0509425,VALID,19.6367,VALID,89,VALID,0.0281613,
2008-06-25, 01:43:00,VALID,917.362,VALID,0,VALID,100,VALID,0.0339617,VALID,19.6239,VALID,89,VALID,0,
2008-06-25, 01:44:00,VALID,917.349,VALID,0,VALID,100,VALID,0.0339617,VALID,19.6147,VALID,89,VALID,0.384115,
2008-06-25, 01:45:00,VALID,917.355,VALID,0,VALID,100,VALID,0.0509425,VALID,19.5942,VALID,91,VALID,0.625186,
2008-06-25, 01:46:00,VALID,917.332,VALID,0,VALID,100,VALID,0.0509425,VALID,19.5882,VALID,99,VALID,0.779194,
2008-06-25, 01:47:00,VALID,917.326,VALID,0,VALID,100,VALID,0.0679233,VALID,19.575,VALID,105,VALID,0.801953,
2008-06-25, 01:48:00,VALID,917.321,VALID,0,VALID,100,VALID,0.101885,VALID,19.575,VALID,115,VALID,0.911395,
2008-06-25, 01:49:00,VALID,917.311,VALID,0,VALID,100,VALID,0.0509425,VALID,19.5658,VALID,127,VALID,0.960007,
2008-06-25, 01:50:00,VALID,917.309,VALID,0,VALID,100,VALID,0.0339617,VALID,19.5593,VALID,125,VALID,0.981326,
2008-06-25, 01:51:00,VALID,917.304,VALID,0,VALID,100,VALID,0.0339617,VALID,19.5558,VALID,139,VALID,0.919141,
2008-06-25, 01:52:00,VALID,917.312,VALID,0,VALID,100,VALID,0.0339617,VALID,19.5523,VALID,147,VALID,1.1542,
2008-06-25, 01:53:00,VALID,917.29,VALID,0,VALID,100,VALID,0.0169808,VALID,19.56,VALID,143,VALID,1.29634,
2008-06-25, 01:54:00,VALID,917.295,VALID,0,VALID,100,VALID,-0.0509425,VALID,19.5598,VALID,140,VALID,1.18883,
2008-06-25, 01:55:00,VALID,917.28,VALID,0,VALID,100,VALID,-0.0509425,VALID,19.5568,VALID,137,VALID,0.717773,
2008-06-25, 01:56:00,VALID,917.275,VALID,0,VALID,100,VALID,-0.0339617,VALID,19.5603,VALID,136,VALID,0.389737,
2008-06-25, 01:57:00,VALID,917.279,VALID,0,VALID,100,VALID,-0.0849042,VALID,19.5605,VALID,151,VALID,0.209302,
2008-06-25, 01:58:00,VALID,917.277,VALID,0,VALID,100,VALID,-0.0849042,VALID,19.56,VALID,152,VALID,0,
2008-06-25, 01:59:00,VALID,917.277,VALID,0,VALID,100,VALID,-0.0339617,VALID,19.557,VALID,153,VALID,0.355196,
2008-06-25, 02:00:00,VALID,917.274,VALID,0,VALID,100,VALID,-0.0339617,VALID,19.5476,VALID,152,VALID,0.517912,
2008-06-25, 02:01:00,VALID,917.261,VALID,0,VALID,100,VALID,-0.0849042,VALID,19.5308,VALID,149,VALID,0.539993,
2008-06-25, 02:02:00,VALID,917.238,VALID,0,VALID,100,VALID,-0.0169808,VALID,19.5246,VALID,155,VALID,0.579078,
2008-06-25, 02:03:00,VALID,917.226,VALID,0,VALID,100,VALID,-0.0849042,VALID,19.5281,VALID,163,VALID,1.0452,
2008-06-25, 02:04:00,VALID,917.209,VALID,0,VALID,100,VALID,-0.0849042,VALID,19.5346,VALID,161,VALID,0.698103,
2008-06-25, 02:05:00,VALID,917.2,VALID,0,VALID,100,VALID,-0.0849042,VALID,19.5413,VALID,170,VALID,0.542683,
2008-06-25, 02:06:00,VALID,917.189,VALID,0,VALID,100,VALID,-0.0679233,VALID,19.5378,VALID,170,VALID,0.381669,
2008-06-25, 02:07:00,VALID,917.191,VALID,0,VALID,100,VALID,-0.0849042,VALID,19.5346,VALID,159,VALID,0.141797,
2008-06-25, 02:08:00,VALID,917.175,VALID,0,VALID,100,VALID,-0.0339617,VALID,19.5243,VALID,163,VALID,0.177782,
2008-06-25, 02:09:00,VALID,917.185,VALID,0,VALID,100,VALID,-0.0339617,VALID,19.5278,VALID,157,VALID,0.0306784,
2008-06-25, 02:10:00,VALID,917.179,VALID,0,VALID,100,VALID,0,VALID,19.5114,VALID,156,VALID,0,
2008-06-25, 02:11:00,VALID,917.169,VALID,0,VALID,100,VALID,-0.0509425,VALID,19.4981,VALID,148,VALID,0.442835,
2008-06-25, 02:12:00,VALID,917.165,VALID,0,VALID,100,VALID,-0.0339617,VALID,19.4862,VALID,138,VALID,0.629092,
2008-06-25, 02:13:00,VALID,917.142,VALID,0,VALID,100,VALID,-0.0679233,VALID,19.463,VALID,143,VALID,0.336119,
2008-06-25, 02:14:00,VALID,917.133,VALID,0,VALID,100,VALID,-0.0509425,VALID,19.4532,VALID,135,VALID,0.664063,
2008-06-25, 02:15:00,VALID,917.113,VALID,0,VALID,100,VALID,-0.0679233,VALID,19.4567,VALID,129,VALID,0.130504,
2008-06-25, 02:16:00,VALID,917.101,VALID,0,VALID,100,VALID,-0.0849042,VALID,19.43,VALID,127,VALID,0.0767663,
2008-06-25, 02:17:00,VALID,917.08,VALID,0,VALID,100,VALID,-0.0339617,VALID,19.4368,VALID,126,VALID,0,
2008-06-25, 02:18:00,VALID,917.079,VALID,0,VALID,100,VALID,-0.0169808,VALID,19.4338,VALID,124,VALID,0,
2008-06-25, 02:19:00,VALID,917.071,VALID,0,VALID,100,VALID,-0.0509425,VALID,19.4303,VALID,124,VALID,0,
2008-06-25, 02:20:00,VALID,917.05,VALID,0,VALID,100,VALID,-0.0679233,VALID,19.434,VALID,124,VALID,0,
2008-06-25, 02:21:00,VALID,917.052,VALID,0,VALID,100,VALID,-0.0849042,VALID,19.4507,VALID,126,VALID,0,
2008-06-25, 02:22:00,VALID,917.047,VALID,0,VALID,100,VALID,-0.0339617,VALID,19.45,VALID,134,VALID,0,
2008-06-25, 02:23:00,VALID,917.037,VALID,0,VALID,100,VALID,-0.0509425,VALID,19.4522,VALID,162,VALID,0,
2008-06-25, 02:24:00,VALID,917.043,VALID,0,VALID,100,VALID,-0.0169808,VALID,19.4617,VALID,162,VALID,0,
2008-06-25, 02:25:00,VALID,917.036,VALID,0,VALID,100,VALID,-0.0169808,VALID,19.4719,VALID,162,VALID,0,
2008-06-25, 02:26:00,VALID,917.025,VALID,0,VALID,100,VALID,0,VALID,19.4715,VALID,162,VALID,0.00327035,
2008-06-25, 02:27:00,VALID,917.019,VALID,0,VALID,100,VALID,-0.0169808,VALID,19.4712,VALID,162,VALID,0,
2008-06-25, 02:28:00,VALID,917.019,VALID,0,VALID,100,VALID,0,VALID,19.4852,VALID,162,VALID,0,
2008-06-25, 02:29:00,VALID,917.009,VALID,0,VALID,100,VALID,0,VALID,19.4909,VALID,162,VALID,0,
2008-06-25, 02:30:00,VALID,916.997,VALID,0,VALID,100,VALID,0.0169808,VALID,19.4814,VALID,162,VALID,0,
2008-06-25, 02:31:00,VALID,916.993,VALID,0,VALID,100,VALID,-0.0169808,VALID,19.4749,VALID,162,VALID,0,
2008-06-25, 02:32:00,VALID,916.986,VALID,0,VALID,100,VALID,0,VALID,19.4622,VALID,162,VALID,0,
2008-06-25, 02:33:00,VALID,916.981,VALID,0,VALID,100,VALID,0,VALID,19.4427,VALID,162,VALID,0,
2008-06-25, 02:34:00,VALID,916.966,VALID,0,VALID,100,VALID,0,VALID,19.4195,VALID,162,VALID,0,
2008-06-25, 02:35:00,VALID,916.963,VALID,0,VALID,100,VALID,0,VALID,19.3933,VALID,162,VALID,0,
2008-06-25, 02:36:00,VALID,916.953,VALID,0,VALID,100,VALID,0.0169808,VALID,19.3936,VALID,162,VALID,0,
2008-06-25, 02:37:00,VALID,916.936,VALID,0,VALID,100,VALID,0,VALID,19.3704,VALID,162,VALID,0,
2008-06-25, 02:38:00,VALID,916.944,VALID,0,VALID,100,VALID,0,VALID,19.3612,VALID,162,VALID,0,
2008-06-25, 02:39:00,VALID,916.919,VALID,0,VALID,100,VALID,0,VALID,19.3417,VALID,162,VALID,0,
2008-06-25, 02:40:00,VALID,916.894,VALID,0,VALID,100,VALID,0.0169808,VALID,19.3092,VALID,162,VALID,0,
2008-06-25, 02:41:00,VALID,916.9,VALID,0,VALID,100,VALID,0,VALID,19.2925,VALID,162,VALID,0,
2008-06-25, 02:42:00,VALID,916.88,VALID,0,VALID,100,VALID,0.0169808,VALID,19.2731,VALID,162,VALID,0,
2008-06-25, 02:43:00,VALID,916.885,VALID,0,VALID,100,VALID,0.0339617,VALID,19.2633,VALID,162,VALID,0,
2008-06-25, 02:44:00,VALID,916.877,VALID,0,VALID,100,VALID,0,VALID,19.3028,VALID,162,VALID,0,
2008-06-25, 02:45:00,VALID,916.883,VALID,0,VALID,100,VALID,0.0339617,VALID,19.3514,VALID,162,VALID,0.270198,
2008-06-25, 02:46:00,VALID,916.889,VALID,0,VALID,100,VALID,0,VALID,19.3744,VALID,162,VALID,0,
2008-06-25, 02:47:00,VALID,916.887,VALID,0,VALID,100,VALID,0,VALID,19.3741,VALID,162,VALID,0,
2008-06-25, 02:48:00,VALID,916.899,VALID,0,VALID,100,VALID,0,VALID,19.3744,VALID,162,VALID,0,
2008-06-25, 02:49:00,VALID,916.894,VALID,0,VALID,100,VALID,-0.0169808,VALID,19.3514,VALID,162,VALID,0,
2008-06-25, 02:50:00,VALID,916.881,VALID,0,VALID,100,VALID,0.0169808,VALID,19.3509,VALID,162,VALID,0,
2008-06-25, 02:51:00,VALID,916.871,VALID,0,VALID,100,VALID,0,VALID,19.3382,VALID,162,VALID,0,
2008-06-25, 02:52:00,VALID,916.856,VALID,0,VALID,100,VALID,0.0169808,VALID,19.3315,VALID,162,VALID,0,
2008-06-25, 02:53:00,VALID,916.852,VALID,0,VALID,100,VALID,-0.0339617,VALID,19.2965,VALID,162,VALID,0,
2008-06-25, 02:54:00,VALID,916.832,VALID,0,VALID,100,VALID,-0.0849042,VALID,19.2453,VALID,162,VALID,0,
2008-06-25, 02:55:00,VALID,916.823,VALID,0,VALID,100,VALID,-0.101885,VALID,19.2034,VALID,162,VALID,0,
2008-06-25, 02:56:00,VALID,916.817,VALID,0,VALID,100,VALID,-0.0849042,VALID,19.1872,VALID,162,VALID,0,
2008-06-25, 02:57:00,VALID,916.825,VALID,0,VALID,100,VALID,-0.101885,VALID,19.2164,VALID,162,VALID,0,
2008-06-25, 02:58:00,VALID,916.802,VALID,0,VALID,100,VALID,-0.101885,VALID,19.2201,VALID,160,VALID,0,
2008-06-25, 02:59:00,VALID,916.805,VALID,0,VALID,100,VALID,-0.101885,VALID,19.2129,VALID,140,VALID,0,
2008-06-25, 03:00:00,VALID,916.806,VALID,0,VALID,100,VALID,-0.118866,VALID,19.2493,VALID,140,VALID,0,
2008-06-25, 03:01:01,VALID,916.8,VALID,0,VALID,100,VALID,-0.101885,VALID,19.2496,VALID,140,VALID,0,
2008-06-25, 03:02:00,VALID,916.788,VALID,0,VALID,100,VALID,-0.101885,VALID,19.2623,VALID,140,VALID,0,
2008-06-25, 03:03:00,VALID,916.804,VALID,0,VALID,100,VALID,-0.101885,VALID,19.2386,VALID,140,VALID,0,
2008-06-25, 03:04:00,VALID,916.809,VALID,0,VALID,100,VALID,-0.101885,VALID,19.2356,VALID,140,VALID,0,
2008-06-25, 03:05:00,VALID,916.812,VALID,0,VALID,100,VALID,-0.0849042,VALID,19.2321,VALID,140,VALID,0,
2008-06-25, 03:06:00,VALID,916.821,VALID,0,VALID,100,VALID,-0.101885,VALID,19.2423,VALID,140,VALID,0,
2008-06-25, 03:07:00,VALID,916.819,VALID,0,VALID,100,VALID,-0.101885,VALID,19.2358,VALID,140,VALID,0,
2008-06-25, 03:08:01,VALID,916.833,VALID,0,VALID,100,VALID,-0.0679233,VALID,19.2518,VALID,160,VALID,0,
2008-06-25, 03:09:00,VALID,916.826,VALID,0,VALID,100,VALID,0,VALID,19.2736,VALID,166,VALID,0.470846,
2008-06-25, 03:10:00,VALID,916.811,VALID,0,VALID,100,VALID,-0.0169808,VALID,19.2796,VALID,166,VALID,0.694618,
2008-06-25, 03:11:01,VALID,916.814,VALID,0,VALID,100,VALID,-0.0169808,VALID,19.2895,VALID,158,VALID,0.517401,
2008-06-25, 03:12:00,VALID,916.809,VALID,0,VALID,100,VALID,0.0339617,VALID,19.2895,VALID,144,VALID,0.575335,
2008-06-25, 03:13:00,VALID,916.808,VALID,0,VALID,100,VALID,-0.0169808,VALID,19.3125,VALID,136,VALID,0.917969,
2008-06-25, 03:14:00,VALID,916.799,VALID,0,VALID,100,VALID,0,VALID,19.3157,VALID,138,VALID,0.814135,
2008-06-25, 03:15:01,VALID,916.796,VALID,0,VALID,100,VALID,0,VALID,19.315,VALID,138,VALID,0.740699,
2008-06-25, 03:16:00,VALID,916.797,VALID,0,VALID,100,VALID,0.0169808,VALID,19.3215,VALID,145,VALID,0.800195,
2008-06-25, 03:17:00,VALID,916.791,VALID,0,VALID,100,VALID,0.0509425,VALID,19.3414,VALID,136,VALID,0.73609,
2008-06-25, 03:18:00,VALID,916.789,VALID,0,VALID,100,VALID,0.0169808,VALID,19.328,VALID,137,VALID,0.446135,
2008-06-25, 03:19:00,VALID,916.792,VALID,0,VALID,100,VALID,0,VALID,19.322,VALID,138,VALID,0.245312,
2008-06-25, 03:20:00,VALID,916.793,VALID,0,VALID,100,VALID,0.0169808,VALID,19.3225,VALID,138,VALID,0.516335,
2008-06-25, 03:21:01,VALID,916.801,VALID,0,VALID,100,VALID,0,VALID,19.299,VALID,132,VALID,0.111243,
2008-06-25, 03:22:00,VALID,916.791,VALID,0,VALID,100,VALID,0.0339617,VALID,19.2698,VALID,112,VALID,0.634115,
2008-06-25, 03:23:00,VALID,916.791,VALID,0,VALID,100,VALID,-0.0169808,VALID,19.2446,VALID,109,VALID,0.294837,
2008-06-25, 03:24:00,VALID,916.788,VALID,0,VALID,100,VALID,-0.0169808,VALID,19.2054,VALID,80,VALID,0.115552,
2008-06-25, 03:25:01,VALID,916.792,VALID,0,VALID,100,VALID,-0.0339617,VALID,19.1765,VALID,69,VALID,0.873611,
2008-06-25, 03:26:01,VALID,916.792,VALID,0,VALID,100,VALID,0,VALID,19.1702,VALID,69,VALID,0.696057,
2008-06-25, 03:27:01,VALID,916.786,VALID,0,VALID,100,VALID,0,VALID,19.1146,VALID,69,VALID,0.734012,
2008-06-25, 03:28:01,VALID,916.761,VALID,0,VALID,100,VALID,0,VALID,19.1371,VALID,69,VALID,0.767624,
2008-06-25, 03:29:01,VALID,916.773,VALID,0,VALID,100,VALID,-0.0339617,VALID,19.1213,VALID,84,VALID,0.881836,
2008-06-25, 03:30:01,VALID,916.752,VALID,0,VALID,100,VALID,0,VALID,19.1276,VALID,86,VALID,0.861151,
2008-06-25, 03:31:01,VALID,916.738,VALID,0,VALID,100,VALID,-0.0339617,VALID,19.1378,VALID,86,VALID,0.96766,
2008-06-25, 03:32:00,VALID,916.738,VALID,0,VALID,100,VALID,-0.0339617,VALID,19.1084,VALID,86,VALID,0.818496,
2008-06-25, 03:33:00,VALID,916.735,VALID,0,VALID,100,VALID,0,VALID,19.0949,VALID,86,VALID,0.689029,
2008-06-25, 03:34:00,VALID,916.726,VALID,0,VALID,100,VALID,0,VALID,19.0887,VALID,88,VALID,0.686612,
2008-06-25, 03:35:00,VALID,916.728,VALID,0,VALID,100,VALID,-0.0169808,VALID,19.0954,VALID,95,VALID,0.726963,
2008-06-25, 03:36:00,VALID,916.72,VALID,0,VALID,100,VALID,0,VALID,19.1341,VALID,112,VALID,0.912064,
2008-06-25, 03:37:01,VALID,916.713,VALID,0,VALID,100,VALID,-0.0169808,VALID,19.144,VALID,124,VALID,0.831931,
2008-06-25, 03:38:01,VALID,916.703,VALID,0,VALID,100,VALID,0,VALID,19.1603,VALID,130,VALID,0.829578,
2008-06-25, 03:39:01,VALID,916.683,VALID,0,VALID,100,VALID,-0.0339617,VALID,19.1503,VALID,141,VALID,0.833398,
2008-06-25, 03:40:00,VALID,916.672,VALID,0,VALID,100,VALID,-0.0509425,VALID,19.1765,VALID,130,VALID,1.1541,
2008-06-25, 03:41:00,VALID,916.67,VALID,0,VALID,100,VALID,-0.0339617,VALID,19.1762,VALID,136,VALID,0.926258,
2008-06-25, 03:42:00,VALID,916.647,VALID,0,VALID,100,VALID,-0.0339617,VALID,19.1765,VALID,129,VALID,0.949124,
2008-06-25, 03:43:00,VALID,916.62,VALID,0,VALID,100,VALID,-0.0339617,VALID,19.1835,VALID,130,VALID,1.10265,
2008-06-25, 03:44:00,VALID,916.599,VALID,0,VALID,100,VALID,-0.0169808,VALID,19.1795,VALID,129,VALID,0.777158,
2008-06-25, 03:45:00,VALID,916.576,VALID,0,VALID,100,VALID,0,VALID,19.1668,VALID,136,VALID,1.11083,